Location: Bretagne
(43.8474°N, 0.4650°W)
Time: 10:02:08
(UTC+00:00)

Cosmos 1633 Rocket - Pass Details

Date: 15 January 2026
Orbit: 600 x 616 km, 82.5° (Epoch: 10 February)

Event Time Altitude Azimuth Distance (km) Brightness Sun altitude
Rises 17:21:30 0° 354° (N) 2,859 6.3 -5.9°
Reaches altitude 10° 17:23:44 10° 357° (N) 1,951 5.4 -6.3°
Maximum altitude 17:28:01 68° 80° (E) 649 3.0 -7.0°
Drops below altitude 10° 17:32:17 10° 164° (SSE) 1,937 5.7 -7.7°
Sets 17:34:30 0° 167° (SSE) 2,836 6.6 -8.1°
